Regional Weather Roundup
Issued by NWS Newport/Morehead, NC

Current Version | Previous Version | Text Only | Print | Product List | Glossary On
Versions: 1 2 3 4 5 6 7 8 9 10 11 12 13 14 15 16 17 18 19 20 21 22 23 24 25 26 27 28 29 30 31 32 33 34 35 36 37 38 39 40 41 42 43 44 45 46 47 48 49 50
000
ASUS42 KMHX 171125
RWRMHX
WEATHER ROUNDUP FOR EASTERN NORTH CAROLINA
NATIONAL WEATHER SERVICE NEWPORT/MOREHEAD CITY NC
600 AM EST FRI NOV 17 2017

NOTE: "FAIR" INDICATES FEW OR NO CLOUDS BELOW 12,000 FEET
WITH NO SIGNIFICANT WEATHER AND/OR OBSTRUCTIONS TO VISIBILITY

NCZ015>017-031-032-045>047-102-103-171200-
NORTH COAST

CITY           SKY/WX    TMP DP  RH WIND       PRES   REMARKS
EDENTON        CLEAR     38  33  81 CALM      30.19R
ELIZABETH CITY CLEAR     43  34  70 N13       30.17R
KITTY HAWK     SUNNY     45  36  70 NW6       30.14R
MANTEO         CLEAR     45  37  72 N10G18    30.16R

$$

NCZ045>047-081-094-103-104-171200-
CENTRAL COAST

CITY           SKY/WX    TMP DP  RH WIND       PRES   REMARKS
FRISCO         CLEAR     50  44  80 VRB7      30.13R

$$

NCZ095-097-098-100-101-171200-
SOUTHERN COAST

CITY           SKY/WX    TMP DP  RH WIND       PRES   REMARKS
BEAUFORT       CLEAR     44  39  82 N10       30.16R
CEDAR ISLAND   NOT AVBL
JACKSONVILLE   CLEAR     42  36  79 N7        30.18R
PINEY ISLAND   NOT AVBL
WILMINGTON     CLEAR     44  36  73 N12       30.17R


$$

NCZ011>013-027>030-043-044-078>080-089-090>093-098-171200-
COASTAL PLAIN

CITY           SKY/WX    TMP DP  RH WIND       PRES   REMARKS
AHOSKIE        CLEAR     33  31  93 CALM      30.20R
CLINTON        CLEAR     38  35  86 CALM      30.20R
ELIZABETHTOWN  NOT AVBL
GOLDSBORO      PTCLDY    40  32  72 NE3       30.18R
GREENVILLE     CLEAR     32  32 100 CALM      30.21R
HAVELOCK       NOT AVBL
KENANSVILLE    PTCLDY    39  34  81 CALM      30.20R
KINSTON        CLEAR     36  33  88 CALM      30.20R
NEW BERN       PTCLDY    40  35  83 N10       30.19R
RICHLANDS      CLEAR     40  35  83 N6        30.19R
ROCKY MOUNT    PTCLDY    35  32  88 N3        30.20R
WASHINGTON     CLEAR     36  33  88 CALM      30.19S
WHITEVILLE     CLEAR     45  32  62 N3        30.18R

$$

AMZ130-135-150-152-154-156-158-170-250-252-270-ANZ085-086-088-633-658-670-171200-
MARINE OBSERVATIONS

STATION/POSITION TIME  TEMP    WIND        PRES    WAVE   SWELL
                       AIR SEA DIR/SP/G            HT/PER HT/PER
                 (UTC) (F)     (DEG/KT/KT) (MB)    (FT/S) (FT/S)
CHESAPEAKE LIGHT NOT AVBL
64 E VA BEACH    1050   51 61  340/ 19/ 23 1019.5    8/ 7   5/ 7
DUCK             1100   47 57  330/ 19/ 22 1020.2
2 E DUCK         1100      60                N/A     6/ 6   2/13
OREGON INLET     1100   47 58  320/ 11/ 14 1020.6
13E OREGON INLT  1048      62                N/A     7/ 7   7/ 7
HATTERAS CG      1100   51 59  360/ 17/ 22 1020.3
DIAMOND BUOY     1110   55 65  360/ 19/ 23 1020.2
CAPE LOOKOUT     1100   49      10/ 16/ 20 1021.2
BEAUFORT LAB     1100   47 59   10/ 12/ 17 1021.2
30 SE NEW RVR IN 1008   57 71   50/ 17/ 23 1019.6
30 SE NEW RVR IN 1100      71                N/A     6/ 5   2/11
27 SE WRIGHTSVLE 1008   58 68   50/ 21/ 29 1019.4
5 SE WRIGHTSVLE  1108   52 64   30/ 17/ 23 1020.0
225 S CAPE HAT   1050   70 77   10/ 14/ 17 1016.4    7/11   5/11
41 SE CHARLESTON 1110   65 75   30/ 19/ 23 1019.1

$$




USA.gov is the U.S. government's official web portal to all federal, state and local government web resources and services.